Guymon, OK

5:52 AM CDT on May 28, 2018 (GMT -0500)
Guymon Municipal

Weather History for KGUY - November, 2012

Change the Weather History Date:

Monday, November 5, 2012

  Actual Average Record
Temperature  
Mean Temperature 56 °F 50 °F  
Max Temperature 69 °F 65 °F 79 °F (2009)
Min Temperature 43 °F 35 °F 22 °F (2010)
Degree Days  
Heating Degree Days 9 15  
Month to date heating degree days 43 71  
Since 1 July heating degree days 351 380  
Cooling Degree Days 0 0  
Month to date cooling degree days 0 0  
Year to date cooling degree days 1917 1481  
Growing Degree Days 7 (Base 50)    
Moisture  
Dew Point 32 °F    
Average Humidity 42    
Maximum Humidity 57    
Minimum Humidity 26    
Precipitation  
Precipitation 0.00 in 0.02 in 0.18 in (2013)
Month to date precipitation 0.00 0.11  
Year to date precipitation 10.79 18.24  
Snow  
Snow 0.00 in - - ()
Month to date snowfall 0.0  
Since 1 July snowfall 0.0  
Since 1 September snowfall 0.0  
Snow Depth 0.00 in    
Sea Level Pressure  
Sea Level Pressure 30.12 in    
Wind  
Wind Speed 9 mph (NNW)    
Max Wind Speed 17 mph    
Max Gust Speed 23 mph    
Visibility 10 miles    
Events      
T = Trace of Precipitation, MM = Missing Value Source: NWS Daily Summary

Daily Weather History Graph

Daily Weather History Graph

Search for Another Location

Airport or City:

Astronomy

Nov. 05, 2012 Rise Set
Actual Time 7:14 AM CST 5:44 PM CST
Civil Twilight 6:47 AM CST 6:11 PM CST
Nautical Twilight 6:16 AM CST 6:42 PM CST
Astronomical Twilight 5:46 AM CST 7:12 PM CST
Moon 11:23 PM CST (11/5) 12:34 PM CST (11/5)
Length of Visible Light 11h 24m
Length of Day
10h 30m
Waning Gibbous, 62% of the Moon is Illuminated
Nov 5
Waning Gibbous
Nov 6
Last Quarter
Nov 13
New
Nov 20
First Quarter
Nov 28
Full

Hourly Weather History & Observations

Time (CST) Temp. Windchill Dew Point Humidity Pressure Visibility Wind Dir Wind Speed Gust Speed Precip Events Conditions
12:53 AM 53.1 °F - 27.0 °F 37% 30.13 in 10.0 mi North 12.7 mph - N/A   Clear
1:53 AM 52.0 °F - 28.0 °F 40% 30.14 in 10.0 mi NNW 8.1 mph - N/A   Clear
2:53 AM 50.0 °F - 30.0 °F 46% 30.15 in 10.0 mi NW 10.4 mph - N/A   Clear
3:53 AM 51.1 °F - 30.9 °F 46% 30.14 in 10.0 mi WNW 12.7 mph - N/A   Clear
4:53 AM 46.9 °F - 30.9 °F 54% 30.16 in 10.0 mi WNW 10.4 mph - N/A   Partly Cloudy
5:53 AM 46.9 °F - 32.0 °F 56% 30.18 in 10.0 mi WNW 9.2 mph - N/A   Overcast
6:53 AM 48.0 °F - 33.1 °F 56% 30.19 in 10.0 mi NW 10.4 mph - N/A   Overcast
7:53 AM 48.0 °F - 33.1 °F 56% 30.20 in 10.0 mi NNW 11.5 mph - N/A   Overcast
8:53 AM 53.1 °F - 34.0 °F 48% 30.21 in 10.0 mi NNW 12.7 mph - N/A   Clear
9:53 AM 57.0 °F - 34.0 °F 42% 30.20 in 10.0 mi North 15.0 mph - N/A   Clear
10:53 AM 60.1 °F - 34.0 °F 38% 30.18 in 10.0 mi NNW 12.7 mph - N/A   Clear
11:53 AM 64.0 °F - 33.1 °F 31% 30.15 in 10.0 mi North 12.7 mph 19.6 mph N/A   Clear
12:53 PM 64.9 °F - 32.0 °F 29% 30.11 in 10.0 mi NNW 11.5 mph 23.0 mph N/A   Clear
1:53 PM 68.0 °F - 32.0 °F 26% 30.07 in 10.0 mi NNW 12.7 mph - N/A   Clear
2:53 PM 68.0 °F - 30.9 °F 25% 30.06 in 10.0 mi NNW 10.4 mph - N/A   Clear
3:53 PM 68.0 °F - 30.9 °F 25% 30.05 in 10.0 mi NW 8.1 mph - N/A   Clear
4:53 PM 66.0 °F - 30.9 °F 27% 30.04 in 10.0 mi NW 6.9 mph - N/A   Clear
5:53 PM 63.0 °F - 30.9 °F 30% 30.05 in 10.0 mi North 3.5 mph - N/A   Clear
6:53 PM 59.0 °F - 32.0 °F 36% 30.06 in 10.0 mi Calm Calm - N/A   Clear
7:53 PM 53.1 °F - 30.9 °F 43% 30.09 in 10.0 mi ENE 5.8 mph - N/A   Clear
8:53 PM 51.1 °F - 34.0 °F 52% 30.08 in 10.0 mi SSE 5.8 mph - N/A   Clear
9:53 PM 46.9 °F - 32.0 °F 56% 30.09 in 10.0 mi South 3.5 mph - N/A   Clear
10:53 PM 46.9 °F - 30.9 °F 54% 30.06 in 10.0 mi Calm Calm - N/A   Clear
11:53 PM 43.0 °F 38.2 °F 30.0 °F 60% 30.06 in 10.0 mi SW 8.1 mph - N/A   Clear